AAL1682 KCLT-KMCO

Flight info

Callsign AAL1682
Flight time 1h 9m
Altitude 30000
Route ICONS5 NOOKS WURFL Q83 ROYCO Q85 LPERD SNFLD3
Aircraft A321/M-SDE3FGHIRWY/LB1

Departure

Time 2026-04-20 20:45
Airport Charlotte Douglas International Airport (KCLT)

Arrival

Time 2026-04-20 21:55
Airport Orlando International Airport (KMCO)
Time Latitude Longitude Altitude Speed Heading
2026-04-20 20:21 35.21931 -80.94210 732 ft 0 kts 260°
2026-04-20 20:35 35.21931 -80.94209 732 ft 1 kts 260°
2026-04-20 20:35 35.21935 -80.94182 730 ft 4 kts 278°
2026-04-20 20:35 35.21927 -80.94161 730 ft 4 kts 297°
2026-04-20 20:36 35.21925 -80.94139 730 ft 3 kts 259°
2026-04-20 20:36 35.21929 -80.94110 732 ft 1 kts 262°
2026-04-20 20:36 35.21929 -80.94109 732 ft 0 kts 262°
2026-04-20 20:39 35.21929 -80.94110 732 ft 0 kts 262°
2026-04-20 20:39 35.21920 -80.94116 732 ft 2 kts 205°
2026-04-20 20:39 35.21876 -80.94105 732 ft 8 kts 168°
2026-04-20 20:39 35.21838 -80.94096 732 ft 0 kts 169°
2026-04-20 20:40 35.21831 -80.94095 732 ft 4 kts 168°
2026-04-20 20:40 35.21772 -80.94059 732 ft 14 kts 144°
2026-04-20 20:40 35.21691 -80.93979 732 ft 15 kts 139°
2026-04-20 20:41 35.21620 -80.93903 733 ft 14 kts 138°
2026-04-20 20:41 35.21513 -80.93786 732 ft 24 kts 138°
2026-04-20 20:41 35.21387 -80.93664 733 ft 22 kts 161°
2026-04-20 20:41 35.21235 -80.93647 733 ft 22 kts 175°
2026-04-20 20:42 35.21085 -80.93633 733 ft 21 kts 176°
2026-04-20 20:42 35.20940 -80.93621 733 ft 21 kts 175°
2026-04-20 20:42 35.20798 -80.93608 733 ft 20 kts 176°
2026-04-20 20:42 35.20660 -80.93597 733 ft 20 kts 175°
2026-04-20 20:43 35.20527 -80.93585 733 ft 19 kts 176°
2026-04-20 20:43 35.20398 -80.93575 733 ft 18 kts 176°
2026-04-20 20:43 35.20273 -80.93564 733 ft 18 kts 176°
2026-04-20 20:43 35.20165 -80.93556 733 ft 13 kts 176°
2026-04-20 20:44 35.20100 -80.93507 732 ft 11 kts 108°
2026-04-20 20:44 35.20103 -80.93428 734 ft 8 kts 63°
2026-04-20 20:44 35.20144 -80.93418 734 ft 6 kts 356°
2026-04-20 20:44 35.20208 -80.93424 735 ft 26 kts 355°
2026-04-20 20:45 35.20645 -80.93462 736 ft 97 kts 356°
2026-04-20 20:45 35.21512 -80.93541 736 ft 150 kts 355°
2026-04-20 20:45 35.22602 -80.93579 1135 ft 161 kts 360°
2026-04-20 20:45 35.23727 -80.93300 1749 ft 163 kts
2026-04-20 20:46 35.24821 -80.92962 2447 ft 163 kts
2026-04-20 20:46 35.25942 -80.92568 2850 ft 180 kts 10°
2026-04-20 20:46 35.27218 -80.92110 3080 ft 202 kts 11°
2026-04-20 20:46 35.28578 -80.91354 3273 ft 233 kts 34°
2026-04-20 20:47 35.29587 -80.89646 3556 ft 267 kts 66°
2026-04-20 20:47 35.29810 -80.87333 4188 ft 283 kts 96°
2026-04-20 20:47 35.29246 -80.84999 4984 ft 288 kts 110°
2026-04-20 20:47 35.28487 -80.82720 5793 ft 291 kts 112°
2026-04-20 20:48 35.27705 -80.80429 6606 ft 294 kts 112°
2026-04-20 20:48 35.26915 -80.78117 7384 ft 297 kts 112°
2026-04-20 20:48 35.25968 -80.75856 8139 ft 301 kts 128°
2026-04-20 20:48 35.24431 -80.74144 8867 ft 301 kts 153°
2026-04-20 20:49 35.22483 -80.73310 9624 ft 295 kts 178°
2026-04-20 20:49 35.20469 -80.73452 10338 ft 288 kts 200°
2026-04-20 20:49 35.18493 -80.74211 10581 ft 309 kts 204°
2026-04-20 20:49 35.16410 -80.75079 10944 ft 322 kts 204°
2026-04-20 20:50 35.14275 -80.75978 11565 ft 327 kts 204°
2026-04-20 20:50 35.12104 -80.76886 12172 ft 333 kts 204°
2026-04-20 20:50 35.09888 -80.77802 12828 ft 338 kts 203°
2026-04-20 20:50 35.07645 -80.78719 13512 ft 342 kts 203°
2026-04-20 20:51 35.05373 -80.79645 14150 ft 347 kts 204°
2026-04-20 20:51 35.03075 -80.80582 14736 ft 351 kts 204°
2026-04-20 20:51 35.00731 -80.81543 14923 ft 368 kts 204°
2026-04-20 20:51 34.98260 -80.82561 15273 ft 378 kts 204°
2026-04-20 20:52 34.95749 -80.83590 15770 ft 384 kts 204°
2026-04-20 20:52 34.93235 -80.84617 16272 ft 388 kts 204°
2026-04-20 20:52 34.90660 -80.85665 16780 ft 393 kts 205°
2026-04-20 20:52 34.88052 -80.86725 17221 ft 398 kts 205°
2026-04-20 20:53 34.85408 -80.87799 17693 ft 403 kts 205°
2026-04-20 20:53 34.82743 -80.88884 18175 ft 407 kts 205°
2026-04-20 20:53 34.80046 -80.89979 18624 ft 410 kts 206°
2026-04-20 20:53 34.77329 -80.91080 19006 ft 413 kts 206°
2026-04-20 20:54 34.74589 -80.92190 19382 ft 417 kts 206°
2026-04-20 20:54 34.71828 -80.93308 19769 ft 419 kts 206°
2026-04-20 20:54 34.69049 -80.94432 20164 ft 422 kts 206°
2026-04-20 20:54 34.66257 -80.95563 20574 ft 424 kts 206°
2026-04-20 20:55 34.63450 -80.96675 20962 ft 428 kts 203°
2026-04-20 20:55 34.60493 -80.97399 21381 ft 438 kts 193°
2026-04-20 20:55 34.57439 -80.97700 21811 ft 442 kts 191°
2026-04-20 20:55 34.54358 -80.97983 22241 ft 444 kts 191°
2026-04-20 20:56 34.51265 -80.98271 22657 ft 447 kts 191°
2026-04-20 20:56 34.48156 -80.98563 23081 ft 449 kts 191°
2026-04-20 20:56 34.45039 -80.98860 23501 ft 451 kts 191°
2026-04-20 20:56 34.41896 -80.99157 23896 ft 454 kts 192°
2026-04-20 20:57 34.38743 -80.99453 24217 ft 456 kts 191°
2026-04-20 20:57 34.35572 -80.99748 24577 ft 458 kts 192°
2026-04-20 20:57 34.32386 -81.00046 24913 ft 460 kts 192°
2026-04-20 20:57 34.29185 -81.00343 25244 ft 462 kts 192°
2026-04-20 20:58 34.26012 -81.00636 25565 ft 465 kts 192°
2026-04-20 20:58 34.22784 -81.00937 25892 ft 467 kts 192°
2026-04-20 20:58 34.19535 -81.01243 26220 ft 469 kts 192°
2026-04-20 20:58 34.16269 -81.01548 26540 ft 472 kts 192°
2026-04-20 20:59 34.12993 -81.01854 26829 ft 474 kts 192°
2026-04-20 20:59 34.09690 -81.02165 27101 ft 478 kts 192°
2026-04-20 20:59 34.06365 -81.02475 27407 ft 480 kts 192°
2026-04-20 20:59 34.03026 -81.02787 27724 ft 482 kts 192°
2026-04-20 21:00 33.99673 -81.03099 28019 ft 484 kts 192°
2026-04-20 21:00 33.96297 -81.03347 28317 ft 489 kts 190°
2026-04-20 21:00 33.92874 -81.03432 28601 ft 494 kts 188°
2026-04-20 21:00 33.89432 -81.03387 28861 ft 497 kts 186°
2026-04-20 21:01 33.85964 -81.03269 29084 ft 499 kts 186°
2026-04-20 21:01 33.82495 -81.03135 29387 ft 499 kts 186°
2026-04-20 21:01 33.79023 -81.03026 29628 ft 499 kts 187°
2026-04-20 21:01 33.75552 -81.02957 29860 ft 499 kts 188°
2026-04-20 21:02 33.72079 -81.02923 30169 ft 498 kts 188°
2026-04-20 21:02 33.68635 -81.02902 30246 ft 488 kts 188°
2026-04-20 21:02 33.62057 -81.02865 30170 ft 478 kts 189°
2026-04-20 21:03 33.55466 -81.02823 30245 ft 471 kts 189°
2026-04-20 21:03 33.48913 -81.02768 30251 ft 471 kts 189°
2026-04-20 21:04 33.42364 -81.02704 30253 ft 471 kts 189°
2026-04-20 21:04 33.35814 -81.02646 30232 ft 470 kts 189°
2026-04-20 21:05 33.29269 -81.02584 30234 ft 470 kts 189°
2026-04-20 21:05 33.22737 -81.02523 30249 ft 470 kts 189°
2026-04-20 21:06 33.16205 -81.02462 30258 ft 469 kts 189°
2026-04-20 21:06 33.09669 -81.02410 30257 ft 469 kts 189°
2026-04-20 21:07 33.03137 -81.02347 30251 ft 469 kts 189°
2026-04-20 21:07 32.96651 -81.02280 30252 ft 469 kts 189°
2026-04-20 21:08 32.90120 -81.02224 30253 ft 469 kts 189°
2026-04-20 21:08 32.83598 -81.02169 30255 ft 469 kts 189°
2026-04-20 21:09 32.77061 -81.02106 30268 ft 470 kts 190°
2026-04-20 21:09 32.70526 -81.02047 30275 ft 469 kts 190°
2026-04-20 21:10 32.63995 -81.01995 30270 ft 469 kts 190°
2026-04-20 21:10 32.57474 -81.01937 30270 ft 469 kts 190°
2026-04-20 21:11 32.50933 -81.01887 30263 ft 470 kts 191°
2026-04-20 21:11 32.44451 -81.01975 30268 ft 468 kts 192°
2026-04-20 21:12 32.38452 -81.02134 30275 ft 468 kts 192°
2026-04-20 21:12 32.31937 -81.02276 30274 ft 469 kts 192°
2026-04-20 21:13 32.25417 -81.02378 30269 ft 468 kts 193°
2026-04-20 21:13 32.18910 -81.02487 30274 ft 467 kts 193°
2026-04-20 21:14 32.12414 -81.02602 30274 ft 466 kts 193°
2026-04-20 21:14 32.05933 -81.02728 30262 ft 466 kts 193°
2026-04-20 21:15 31.99459 -81.02846 30257 ft 464 kts 193°
2026-04-20 21:15 31.94106 -81.02965 30273 ft 462 kts 193°
2026-04-20 21:16 31.87689 -81.03148 30265 ft 460 kts 194°
2026-04-20 21:16 31.81286 -81.03339 30270 ft 460 kts 194°
2026-04-20 21:17 31.74899 -81.03518 30241 ft 459 kts 194°
2026-04-20 21:17 31.68510 -81.03695 30253 ft 459 kts 194°
2026-04-20 21:18 31.62134 -81.03932 30256 ft 452 kts 198°
2026-04-20 21:18 31.59082 -81.04519 30257 ft 437 kts 207°
2026-04-20 21:18 31.56228 -81.05568 30258 ft 424 kts 215°
2026-04-20 21:19 31.53633 -81.06995 30266 ft 412 kts 221°
2026-04-20 21:19 31.51097 -81.08573 30266 ft 413 kts 220°
2026-04-20 21:20 31.43457 -81.13272 30276 ft 415 kts 220°
2026-04-20 21:20 31.38335 -81.16391 30283 ft 415 kts 220°
2026-04-20 21:21 31.33198 -81.19472 30288 ft 415 kts 219°
2026-04-20 21:21 31.28035 -81.22515 30284 ft 415 kts 219°
2026-04-20 21:22 31.22885 -81.25556 30280 ft 415 kts 220°
2026-04-20 21:22 31.20239 -81.26979 30253 ft 427 kts 213°
2026-04-20 21:22 31.17317 -81.27940 30265 ft 446 kts 202°
2026-04-20 21:22 31.14169 -81.28288 30253 ft 464 kts 192°
2026-04-20 21:23 31.10935 -81.28261 30261 ft 465 kts 191°
2026-04-20 21:23 31.04457 -81.28214 30269 ft 465 kts 192°
2026-04-20 21:24 30.97997 -81.28199 30276 ft 464 kts 192°
2026-04-20 21:24 30.91576 -81.28196 30267 ft 465 kts 191°
2026-04-20 21:25 30.85064 -81.28183 30277 ft 465 kts 191°
2026-04-20 21:25 30.78597 -81.28169 30281 ft 465 kts 191°
2026-04-20 21:26 30.72170 -81.28152 30286 ft 465 kts 191°
2026-04-20 21:26 30.66047 -81.28131 30222 ft 465 kts 191°
2026-04-20 21:27 30.59525 -81.28104 30306 ft 467 kts 189°
2026-04-20 21:27 30.52997 -81.27749 30309 ft 471 kts 186°
2026-04-20 21:28 30.46462 -81.27138 30294 ft 471 kts 186°
2026-04-20 21:28 30.39935 -81.26563 30289 ft 470 kts 186°
2026-04-20 21:29 30.33414 -81.26067 30285 ft 469 kts 187°
2026-04-20 21:29 30.26915 -81.25594 30280 ft 469 kts 187°
2026-04-20 21:30 30.20409 -81.25124 30278 ft 469 kts 187°
2026-04-20 21:30 30.13894 -81.24641 30276 ft 469 kts 187°
2026-04-20 21:31 30.07358 -81.24148 30286 ft 469 kts 186°
2026-04-20 21:31 30.00907 -81.23664 30284 ft 467 kts 186°
2026-04-20 21:32 29.94422 -81.23182 30287 ft 467 kts 186°
2026-04-20 21:32 29.87932 -81.22691 30285 ft 467 kts 186°
2026-04-20 21:33 29.81451 -81.22207 30250 ft 466 kts 186°
2026-04-20 21:33 29.74983 -81.21731 30129 ft 466 kts 186°
2026-04-20 21:33 29.71757 -81.21493 29422 ft 463 kts 185°
2026-04-20 21:34 29.68559 -81.21246 28823 ft 458 kts 185°
2026-04-20 21:34 29.65395 -81.20979 28208 ft 453 kts 185°
2026-04-20 21:34 29.62266 -81.20701 27601 ft 449 kts 185°
2026-04-20 21:34 29.59174 -81.20424 26999 ft 444 kts 185°
2026-04-20 21:35 29.56106 -81.20152 26410 ft 440 kts 185°
2026-04-20 21:35 29.53064 -81.19888 25793 ft 436 kts 184°
2026-04-20 21:35 29.50057 -81.19632 25247 ft 431 kts 184°
2026-04-20 21:35 29.47082 -81.19383 24677 ft 426 kts 184°
2026-04-20 21:36 29.44181 -81.19141 24124 ft 422 kts 184°
2026-04-20 21:36 29.41268 -81.18893 23534 ft 417 kts 184°
2026-04-20 21:36 29.38405 -81.18647 23006 ft 409 kts 184°
2026-04-20 21:36 29.35592 -81.18403 22487 ft 401 kts 184°
2026-04-20 21:37 29.32829 -81.18165 22016 ft 396 kts 184°
2026-04-20 21:37 29.30090 -81.17936 21560 ft 394 kts 184°
2026-04-20 21:37 29.27366 -81.17707 21113 ft 391 kts 184°
2026-04-20 21:37 29.24659 -81.17475 20650 ft 389 kts 184°
2026-04-20 21:38 29.21980 -81.17241 20226 ft 385 kts 183°
2026-04-20 21:38 29.19312 -81.16889 19789 ft 388 kts 176°
2026-04-20 21:38 29.16698 -81.16056 19348 ft 393 kts 166°
2026-04-20 21:38 29.14158 -81.14937 18881 ft 391 kts 165°
2026-04-20 21:39 29.11621 -81.13823 18372 ft 389 kts 165°
2026-04-20 21:39 29.09090 -81.12720 17695 ft 389 kts 165°
2026-04-20 21:39 29.06581 -81.11627 17258 ft 383 kts 165°
2026-04-20 21:39 29.04089 -81.10603 16782 ft 378 kts 166°
2026-04-20 21:40 29.01606 -81.09654 16328 ft 374 kts 167°
2026-04-20 21:40 28.99132 -81.08745 16104 ft 375 kts 167°
2026-04-20 21:40 28.96629 -81.08059 15958 ft 373 kts 176°
2026-04-20 21:40 28.94065 -81.07750 15426 ft 369 kts 179°
2026-04-20 21:41 28.91514 -81.07464 14988 ft 366 kts 178°
2026-04-20 21:41 28.88997 -81.07374 14548 ft 359 kts 188°
2026-04-20 21:41 28.86555 -81.07812 14121 ft 353 kts 199°
2026-04-20 21:41 28.84245 -81.08698 13656 ft 349 kts 204°
2026-04-20 21:42 28.82156 -81.09574 13253 ft 348 kts 204°
2026-04-20 21:42 28.79885 -81.10522 12837 ft 347 kts 204°
2026-04-20 21:42 28.77620 -81.11464 12416 ft 345 kts 204°
2026-04-20 21:42 28.75406 -81.12380 12233 ft 331 kts 204°
2026-04-20 21:43 28.73279 -81.13256 12091 ft 318 kts 204°
2026-04-20 21:43 28.71228 -81.14105 11798 ft 311 kts 204°
2026-04-20 21:43 28.69143 -81.14783 11555 ft 312 kts 196°
2026-04-20 21:43 28.67034 -81.15338 11178 ft 311 kts 196°
2026-04-20 21:44 28.64925 -81.15888 10694 ft 311 kts 196°
2026-04-20 21:44 28.62808 -81.16438 10230 ft 311 kts 195°
2026-04-20 21:44 28.60703 -81.16985 9756 ft 311 kts 195°
2026-04-20 21:44 28.58638 -81.17519 9501 ft 303 kts 195°
2026-04-20 21:45 28.56623 -81.18037 9357 ft 291 kts 195°
2026-04-20 21:45 28.54672 -81.18519 9123 ft 284 kts 190°
2026-04-20 21:45 28.52705 -81.18640 8768 ft 283 kts 182°
2026-04-20 21:45 28.50740 -81.18654 8380 ft 282 kts 182°
2026-04-20 21:46 28.48780 -81.18673 7999 ft 282 kts 181°
2026-04-20 21:46 28.46825 -81.18689 7614 ft 281 kts 181°
2026-04-20 21:46 28.44888 -81.18707 7280 ft 277 kts 181°
2026-04-20 21:46 28.42956 -81.18722 6859 ft 278 kts 180°
2026-04-20 21:47 28.41020 -81.18737 6451 ft 278 kts 180°
2026-04-20 21:47 28.39087 -81.18753 6082 ft 277 kts 180°
2026-04-20 21:47 28.37182 -81.18772 5784 ft 272 kts 179°
2026-04-20 21:47 28.35284 -81.18789 5384 ft 272 kts 179°
2026-04-20 21:48 28.33398 -81.18802 5104 ft 267 kts 179°
2026-04-20 21:48 28.31577 -81.18811 4999 ft 255 kts 179°
2026-04-20 21:48 28.29832 -81.18811 4817 ft 251 kts 178°
2026-04-20 21:48 28.28098 -81.18779 4582 ft 247 kts 176°
2026-04-20 21:49 28.26390 -81.18776 4450 ft 248 kts 183°
2026-04-20 21:49 28.24710 -81.19244 4322 ft 249 kts 203°
2026-04-20 21:49 28.23364 -81.20425 4169 ft 246 kts 236°
2026-04-20 21:49 28.22698 -81.22168 3809 ft 243 kts 264°
2026-04-20 21:50 28.22695 -81.23995 3630 ft 227 kts 286°
2026-04-20 21:50 28.23216 -81.25588 3563 ft 208 kts 307°
2026-04-20 21:50 28.24103 -81.26825 3453 ft 200 kts 325°
2026-04-20 21:50 28.25267 -81.27675 3282 ft 194 kts 343°
2026-04-20 21:51 28.26519 -81.28055 3078 ft 186 kts 359°
2026-04-20 21:51 28.27799 -81.28088 2846 ft 183 kts
2026-04-20 21:51 28.29079 -81.28101 2609 ft 184 kts
2026-04-20 21:51 28.30366 -81.28114 2374 ft 184 kts
2026-04-20 21:52 28.31631 -81.28128 2141 ft 180 kts
2026-04-20 21:52 28.32852 -81.28142 1893 ft 170 kts
2026-04-20 21:52 28.33991 -81.28154 1675 ft 158 kts
2026-04-20 21:52 28.35052 -81.28166 1481 ft 146 kts
2026-04-20 21:53 28.36036 -81.28176 1296 ft 136 kts
2026-04-20 21:53 28.36959 -81.28185 1111 ft 129 kts
2026-04-20 21:53 28.37853 -81.28193 937 ft 130 kts
2026-04-20 21:53 28.38747 -81.28202 755 ft 127 kts
2026-04-20 21:54 28.39636 -81.28211 592 ft 127 kts
2026-04-20 21:54 28.40531 -81.28219 402 ft 130 kts
2026-04-20 21:54 28.41420 -81.28228 245 ft 127 kts
2026-04-20 21:54 28.42297 -81.28238 111 ft 121 kts
2026-04-20 21:55 28.42909 -81.28240 103 ft 47 kts 359°
2026-04-20 21:55 28.43251 -81.28245 101 ft 43 kts 360°
2026-04-20 21:55 28.43492 -81.28294 101 ft 28 kts 315°
2026-04-20 21:55 28.43615 -81.28369 105 ft 19 kts 349°
2026-04-20 21:56 28.43743 -81.28383 105 ft 18 kts
2026-04-20 21:56 28.43858 -81.28397 107 ft 15 kts 319°
2026-04-20 21:56 28.43875 -81.28513 107 ft 18 kts 269°
2026-04-20 21:56 28.43873 -81.28681 107 ft 25 kts 270°
2026-04-20 21:57 28.43874 -81.28848 107 ft 20 kts 269°
2026-04-20 21:57 28.43872 -81.29002 107 ft 19 kts 269°
2026-04-20 21:57 28.43871 -81.29158 101 ft 19 kts 270°
2026-04-20 21:57 28.43827 -81.29263 101 ft 15 kts 193°
2026-04-20 21:58 28.43733 -81.29264 102 ft 13 kts 180°
2026-04-20 21:58 28.43614 -81.29263 103 ft 21 kts 181°
2026-04-20 21:58 28.43554 -81.29361 106 ft 15 kts 269°
2026-04-20 21:58 28.43553 -81.29481 106 ft 19 kts 269°
2026-04-20 21:59 28.43551 -81.29668 103 ft 23 kts 271°
2026-04-20 21:59 28.43553 -81.29747 104 ft 5 kts 272°
2026-04-20 21:59 28.43543 -81.29788 104 ft 11 kts 236°
2026-04-20 21:59 28.43356 -81.29810 103 ft 33 kts 179°
2026-04-20 22:00 28.43137 -81.29803 104 ft 31 kts 178°
2026-04-20 22:00 28.42934 -81.29800 103 ft 28 kts 180°
2026-04-20 22:00 28.42738 -81.29797 103 ft 28 kts 179°
2026-04-20 22:00 28.42550 -81.29793 103 ft 24 kts 178°
2026-04-20 22:01 28.42391 -81.29814 103 ft 22 kts 219°
2026-04-20 22:01 28.42362 -81.29970 104 ft 20 kts 268°
2026-04-20 22:01 28.42361 -81.30125 104 ft 21 kts 270°
2026-04-20 22:01 28.42358 -81.30337 102 ft 19 kts 268°
2026-04-20 22:02 28.42380 -81.30452 101 ft 14 kts 287°
2026-04-20 22:02 28.42385 -81.30549 100 ft 14 kts 270°
2026-04-20 22:02 28.42377 -81.30708 101 ft 22 kts 266°
2026-04-20 22:02 28.42369 -81.30808 100 ft 24 kts 240°
2026-04-20 22:03 28.42319 -81.30986 100 ft 21 kts 270°
2026-04-20 22:03 28.42336 -81.31146 100 ft 20 kts 280°
2026-04-20 22:03 28.42356 -81.31301 100 ft 20 kts 270°
2026-04-20 22:03 28.42355 -81.31452 101 ft 19 kts 267°
2026-04-20 22:04 28.42349 -81.31592 103 ft 17 kts 269°
2026-04-20 22:04 28.42397 -81.31664 105 ft 13 kts 10°
2026-04-20 22:04 28.42500 -81.31611 102 ft 20 kts
2026-04-20 22:04 28.42639 -81.31635 102 ft 21 kts 348°
2026-04-20 22:05 28.42778 -81.31670 102 ft 19 kts 348°
2026-04-20 22:05 28.42898 -81.31688 102 ft 16 kts 10°
2026-04-20 22:05 28.42952 -81.31603 102 ft 14 kts 79°
2026-04-20 22:05 28.42939 -81.31502 101 ft 13 kts 115°
2026-04-20 22:06 28.42900 -81.31427 102 ft 6 kts 126°
2026-04-20 22:06 28.42876 -81.31422 102 ft 3 kts 200°
2026-04-20 22:06 28.42862 -81.31438 102 ft 3 kts 226°
2026-04-20 22:06 28.42854 -81.31448 100 ft 0 kts 227°